Regional Weather Roundup
Issued by NWS

Home | Current Version | Previous Version | Text Only | Print | Product List | Glossary On
Versions: 1 2 3 4 5 6 7 8 9 10 11 12 13 14 15 16 17 18 19 20 21 22 23 24 25 26 27 28 29 30 31 32 33 34 35 36 37 38 39 40 41 42 43 44 45 46 47 48 49 50
000
ASUS43 KDTX 300810
RWRMI
MICHIGAN HOURLY REGIONAL WEATHER ROUNDUP
NATIONAL WEATHER SERVICE DETROIT/PONTIAC MI
400 AM EDT SUN APR 30 2017

NOTE: "FAIR" INDICATES FEW OR NO CLOUDS BELOW 12,000 FEET WITH NO
SIGNIFICANT WEATHER AND/OR OBSTRUCTION TO VISIBILITY.

MIZ047>049-052>055-059>063-066>070-074>076-081>083-300900-
SOUTHEAST LOWER MICHIGAN

CITY           SKY/WX    TMP DP  RH WIND       PRES   REMARKS
ADRIAN         CLOUDY    41  39  93 E14G24    30.02F
ALMA           LGT SNOW  40  38  92 E18G24    30.09F WCI  31
ANN ARBOR      CLOUDY    41  40  96 NE13G21   30.04F
BAD AXE        MIX PCPN  40  36  86 E12G22    30.15F WCI  33
CARO           DRIZZLE   40  37  91 E9        30.12F WCI  33
DETROIT CITY   CLOUDY    43  42  97 NE9       30.11F
DETROIT        CLOUDY    43  42  97 NE8G18    30.07F
FLINT          LGT RAIN  41  37  86 E12       30.11F
GROSSE ILE     CLOUDY    45  42  91 NE8       30.07F
HILLSDALE      MOCLDY    41  37  87 E15G22    29.98F
HOWELL         CLOUDY    41  38  90 NE7       30.05F

CITY           SKY/WX    TMP DP  RH WIND       PRES   REMARKS
JACKSON        CLOUDY    41  38  89 E9        30.02F
LAMBERTVILLE   CLOUDY    42  41  96 E6        30.02F
LANSING        LGT RAIN  41  37  86 E12G25    30.06F
LAPEER         DRIZZLE   40  37  90 E6        30.11F
MASON          FLURRIES  40  38  95 NE10      30.04F WCI  33
MONROE         CLOUDY    43  42  95 NE8       30.05F
MT. CLEMENS    LGT RAIN  42  42  99 NE15      30.11S
PONTIAC        LGT RAIN  41  38  89 E9G18     30.07F
PORT HOPE        N/A     42  38  85 E23       30.15F
PORT HURON     RAIN      41  39  93 NE5       30.14F
TRI CITIES     LGT RAIN  42  39  89 E9        30.14S FOG
MIDLAND        RAIN      43  38  82 E14       30.13F
TROY           RAIN      42  39  90 NE12      30.12F
SAGINAW HB     LGT RAIN  41  36  81 NE14      30.12F
$$
MIZ043>046-050>051-056>058-064>065-071>073-077>080-300900-
SOUTHWEST LOWER MICHIGAN

CITY           SKY/WX    TMP DP  RH WIND       PRES   REMARKS
BATTLE CREEK   CLOUDY    42  38  85 E12       29.99F
BENTON HARBOR  LGT RAIN  45  38  76 E15G22    29.93S
BIG RAPIDS     LGT SNOW  39  36  87 E10       30.10S WCI  32
COLDWATER      CLOUDY    43  39  88 E14G20    29.97F
FREMONT        RAIN      40  39  94 E12G21    30.06F WCI  34
HOLLAND        CLOUDY    42  38  85 E21G26    29.98F
GRAND RAPIDS   LGT RAIN  40  40 100 E23G35    30.01F FOG     WCI  30
IONIA          LGT RAIN  40  38  93 E20G26    30.05F WCI  30
KALAMAZOO      CLOUDY    43  36  76 E7        30.00F
LUDINGTON      DRIZZLE   40  39  98 NE7G16    30.11F WCI  35
MARSHALL       CLOUDY    41  38  90 E10G21    29.99F
MOUNT PLEASANT LGT SNOW  41  38  91 NE9G16    30.10F
MUSKEGON       LGT RAIN  42  39  89 E15G26    30.02F
SOUTH HAVEN    CLOUDY    44  37  77 E18G25    29.94F
$$
MIZ016>042-300900-
NORTHERN LOWER MICHIGAN

CITY           SKY/WX    TMP DP  RH WIND       PRES   REMARKS
ALPENA         LGT RAIN  37  32  82 E18G25    30.23F WCI  27
BEAVER ISLAND  CLOUDY    41  32  70 E10       30.22R
BELLAIRE       LGT RAIN  42  34  73 NE5       30.18R
CADILLAC       LGT SNOW  39  36  91 E15G22    30.11R WCI  30
CHARLEVOIX     LGT RAIN  43  32  65 E10       30.22R
FRANKFORT      RAIN      42  35  74 NE3       30.18R
GAYLORD        LGT RAIN  41  31  67 E8        30.15F
GRAYLING       DRIZZLE   39  35  84 E12       30.16R WCI  32
HARBOR SPRINGS DRIZZLE   42  31  64 E15G23    30.19R
HOUGHTON LAKE  LGT RAIN  39  35  86 E14       30.14R WCI  31
MANISTEE       RAIN      41  39  93 NE5       30.15R FOG
OSCODA         MIX PCPN  39  34  80 E18G29    30.19F WCI  30
PELLSTON       CLOUDY    43  28  55 E14G22    30.21S
ROGERS CITY    LGT RAIN  39  32  75 E20G26    30.25S WCI  30
TRAVERSE CITY  LGT RAIN  44  36  73 E3        30.17R
$$
MIZ007>008-015-300900-
EASTERN UPPER MICHIGAN

CITY           SKY/WX    TMP DP  RH WIND       PRES   REMARKS
KINROSS        CLOUDY    41  29  62 E8        30.26R
MACKINAC ISLAN PTCLDY    41  33  73 E7G18     30.23R
NEWBERRY       CLOUDY    34  31  87 N5        30.24S WCI  30
S. S. MARIE    CLOUDY    43  28  55 E5        30.27R
MUNISING         N/A     37  34  89 N7        30.23F WCI  32
$$
MIZ004>006-011>014-085-300900-
CENTRAL UPPER MICHIGAN

CITY           SKY/WX    TMP DP  RH WIND       PRES   REMARKS
MANISTIQUE     CLOUDY    37  30  74 NE7       30.22S WCI  32
ESCANABA       MOCLDY    39  28  64 VRB7      30.23R WCI  34
MENOMINEE      CLOUDY    40  28  62 E12G18    30.22R WCI  33
SAWYER-GWINN   PTCLDY    34  27  75 NE12      30.22F WCI  26
$$
MIZ001>003-009>011-084-300900-
WESTERN UPPER MICHIGAN

CITY           SKY/WX    TMP DP  RH WIND       PRES   REMARKS
IRON MOUNTAIN  CLOUDY    38  20  48 VRB3      30.20R
HOUGHTON       CLOUDY    39  15  37 E7        30.23F WCI  34
COPPER HARBOR    N/A     34  27  75 CALM      30.27F
IRONWOOD       CLOUDY    35  20  54 CALM      30.23S
$$

ABBREVIATIONS USED IN REMARKS
   TC - TEMPERATURE IN CELSIUS
  WCI - WIND CHILL INDEX
   HX - HEAT INDEX
  VSB - VISIBILITY




USA.gov is the U.S. government's official web portal to all federal, state and local government web resources and services.